Terminal Aerodrome Forecast
Issued by NWS

Home | Current Version | Previous Version | Graphics & Text | Print | Product List | Glossary On
Versions: 1 2 3 4 5 6 7 8 9 10 11 12 13 14 15 16 17 18 19 20 21 22 23 24
491
FTUS43 KBIS 251036 AAD
TAFMOT
TAF AMD
KMOT 251036Z 2511/2606 13013KT P6SM OVC005
     FM251300 15015KT 6SM BR SCT005 WS020/19040KT
     FM251600 16017KT P6SM BKN080
     FM260000 16006KT P6SM OVC080=

USA.gov is the U.S. government's official web portal to all federal, state and local government web resources and services.